[[{"header":{"parameterUnit":"m.s-1","parameterCategory":2,"la1":30.2991,"la2":30.254,"lo1":-89.0895,"lo2":-89.0444,"dy":0.0017,"dx":0.0017,"nx":28,"ny":28,"refTime":"2023-07-31T09:00:00:Z","depth":"0","parameterNumber":2,"parameterNumberName":"U-component_of_CURRENTS"},"data":[0,0,0,0,0,0,0,0,0,0,0,0,0,0,0,0,0,0,0,0,0,0,0,0,0,0,0,0,0,0,0,0,0,0,0,0,0,0,0,0,0,0,0,0,0,0,0,0,0,0,0,0,0,0,0,0,0,0,-0.0196,-0.0195,0,-0.0212,-0.0212,-0.0213,-0.0302,-0.0304,-0.0306,-0.0307,-0.0377,-0.0378,-0.0378,0,0,0,0,0,0,0,0,0,0,0,0,0,-0.0299,-0.0297,-0.0196,-0.0195,-0.0195,-0.0212,-0.0212,-0.0213,-0.0302,-0.0304,-0.0306,-0.0308,-0.0377,-0.0378,-0.0378,0,0,0,0,0,0,0,0,0,0,0,0,0,-0.0281,-0.0296,-0.0196,-0.024,-0.0244,-0.0212,-0.0212,-0.0213,-0.0301,-0.0304,-0.0307,-0.0309,-0.0377,-0.0378,-0.0378,-0.0321,0,0,-0.0378,-0.0378,0,0,0,0,0,0,0,0,-0.0282,-0.0277,-0.0233,-0.0237,-0.0241,-0.0255,-0.0274,-0.0251,-0.03,-0.0282,-0.0308,-0.0311,-0.0338,-0.0341,-0.0341,-0.0325,-0.0328,-0.0378,-0.0378,-0.0378,-0.0378,0,0,0,0,0,0,0,-0.0283,-0.0278,-0.0205,-0.0233,-0.0238,-0.0279,-0.0279,-0.0271,-0.0297,-0.0284,-0.029,-0.0286,-0.0341,-0.0341,-0.0343,-0.0329,-0.0378,-0.0378,-0.0378,-0.0378,-0.0351,-0.0351,0,0,0,0,0,0,-0.0269,-0.0278,-0.0204,-0.0205,-0.0266,-0.0274,-0.0275,-0.025,-0.0296,-0.0304,-0.0284,-0.029,-0.0339,-0.0343,-0.0346,-0.027,-0.0378,-0.0378,-0.0378,-0.0352,-0.0351,-0.035,0,0,0,0,0,0,-0.0271,-0.0261,-0.0203,-0.0242,-0.0237,-0.0268,-0.0241,-0.0249,-0.0249,-0.0295,-0.0306,-0.0276,-0.0341,-0.0346,-0.0353,-0.0274,-0.0378,-0.0378,-0.0353,-0.0352,-0.0351,-0.0124,0,0,0,0,0,0,-0.0273,-0.0261,-0.0224,-0.0239,-0.0234,-0.0183,-0.0238,-0.0247,-0.0241,-0.025,-0.029,-0.0301,-0.0344,-0.0352,-0.0353,-0.0276,-0.0379,-0.0354,-0.0353,-0.0351,-0.0133,-0.0116,-0.0101,0,0,0,0,0,-0.0276,-0.0218,-0.0221,-0.0212,-0.0186,-0.0181,-0.0182,-0.0218,-0.0238,-0.0229,-0.0268,-0.0299,-0.0344,-0.0351,-0.0352,-0.0273,-0.0355,-0.0353,-0.0351,-0.014,-0.0119,-0.0101,0,0,0,0,0,0,-0.0234,-0.0222,-0.0226,-0.0163,-0.017,-0.0196,-0.0179,-0.0198,-0.0216,-0.0228,-0.0278,-0.0289,-0.0285,-0.0315,-0.0322,-0.0273,-0.0357,-0.0355,-0.0196,-0.0177,-0.0161,0.0044,-0.0379,0,0,0,0,0,-0.0203,-0.0158,-0.0169,-0.0113,-0.0118,-0.0141,-0.0136,-0.0163,-0.0185,-0.0196,-0.0229,-0.0261,-0.0273,-0.0256,-0.0303,-0.0236,-0.0114,-0.0198,-0.0182,-0.0167,-0.0007,0.0259,0.032,-0.0344,-0.0344,-0.0344,0,0,-0.0164,-0.0152,-0.0123,-0.01,-0.011,-0.0105,-0.0147,-0.0138,-0.011,-0.0196,-0.0175,-0.0224,-0.0261,-0.0225,-0.0219,-0.0229,0.0056,-0.0165,-0.0151,0.0005,0.0269,0.0336,0.0396,-0.0343,-0.0343,-0.0344,0,0,-0.0098,-0.0063,-0.0029,-0.0037,-0.0045,-0.0056,-0.0048,-0.0075,-0.0063,-0.0056,-0.0108,-0.0051,-0.0134,-0.0059,-0.0051,0.0048,0.0098,-0.0044,0.0269,0.0521,0.0584,0.064,0.0791,0.086,0.001,0.001,0.0011,0,-0.0054,-0.0015,-0.0017,-0.0012,0.0013,-0.0031,0.0003,0.001,-0.0011,0.0099,-0.0043,0.0061,-0.0009,0.0213,0.0217,0.0111,0.0219,0.0202,0.0562,0.0621,0.0676,0.0817,0.0891,0.0021,0.002,0.0019,0.0018,0,0.0005,0.0032,0.0049,0.0056,0.0089,0.0106,0.0115,0.0177,0.0172,0.0225,0.0395,0.0346,0.047,0.0405,0.0339,0.0692,0.0623,0.0523,0.0553,0.076,0.0888,0.0962,0.0037,0.0033,0.003,0.0027,0,0,0.012,0.0095,0.0103,0.0143,0.013,0.0189,0.0281,0.0436,0.0612,0.0604,0.0871,0.0882,0.095,0.0974,0.0928,0.1157,0.1539,0.1037,0.1044,0.1261,0.207,0.1976,0.2044,0.1514,0.153,0.1542,0.1975,0,0.0166,0.0199,0.0193,0.0286,0.0316,0.037,0.0498,0.0654,0.0751,0.0976,0.111,0.1249,0.1131,0.1201,0.1442,0.1467,0.1758,0.1431,0.178,0.1792,0.1749,0.2139,0.2147,0.2536,0.2047,0.2059,0.2068,0,0.0214,0.0251,0.0323,0.047,0.0507,0.0584,0.0903,0.1005,0.132,0.1413,0.1685,0.1715,0.2046,0.1858,0.2299,0.2087,0.2187,0.2225,0.2239,0.2179,0.1844,0.226,0.2687,0.2606,0.218,0.2171,0.2163,0,0.0309,0.0365,0.0456,0.0478,0.0618,0.0778,0.0903,0.1193,0.1363,0.1732,0.1862,0.2246,0.235,0.2641,0.2668,0.2538,0.3107,0.2901,0.2969,0.2953,0.3062,0.3032,0.3553,0.3396,0.3395,0.3394,0.3393,0,0.0353,0.0444,0.0522,0.0579,0.0836,0.0907,0.1232,0.1421,0.1697,0.1936,0.2113,0.2318,0.2558,0.2809,0.2913,0.3178,0.3329,0.3212,0.3163,0.311,0.3082,0.3083,0.2968,0.341,0.3406,0.3403,0.34,0,0.0446,0.043,0.0604,0.0792,0.0865,0.1088,0.1346,0.1581,0.1785,0.2086,0.2192,0.2454,0.2766,0.2989,0.3376,0.3416,0.3641,0.3754,0.3617,0.355,0.3479,0.337,0.3675,0.3642,0.3984,0.3986,0.3987,0,0.0484,0.0568,0.0792,0.0922,0.1017,0.128,0.1459,0.1653,0.1825,0.2136,0.2268,0.2607,0.2821,0.3338,0.359,0.3938,0.3762,0.4077,0.3885,0.3683,0.3528,0.3191,0.3116,0.4069,0.4071,0.4073,0.4075,0,0.0698,0.0788,0.0959,0.116,0.1348,0.1514,0.1719,0.1809,0.2012,0.2175,0.2374,0.2555,0.3034,0.3349,0.3762,0.3982,0.3911,0.4114,0.4052,0.3867,0.3416,0.3281,0.345,0.409,0.4089,0.4087,0.4087,0.4086,0.0971,0.1129,0.1321,0.1512,0.1633,0.1691,0.1786,0.1902,0.2051,0.2197,0.2361,0.2552,0.3034,0.361,0.3827,0.4186,0.4004,0.4179,0.413,0.3852,0.3688,0.3839,0.4282,0.4282,0.4281,0.4281,0.4281,0,0.1375,0.1465,0.1648,0.1802,0.1838,0.1851,0.1925,0.1936,0.1981,0.2137,0.226,0.2619,0.3085,0.3526,0.409,0.4167,0.4039,0.4183,0.3822,0.3802,0.4165,0.4031,0.4264,0.4264,0.4264,0.4264,0.4264,0.4264,0.1633,0.1856,0.1853,0.1941,0.1957,0.1937,0.1911,0.1887,0.1929,0.2017,0.2131,0.2267,0.2764,0.3544,0.398,0.407,0.3876,0.3786,0.3707,0.4028,0.4022,0.4016,0.3874,0.407,0.407,0.3261,0.3255,0.3251]},{"header":{"parameterUnit":"m.s-1","parameterCategory":2,"la1":30.2991,"la2":30.254,"lo1":-89.0895,"lo2":-89.0444,"dy":0.0017,"dx":0.0017,"nx":28,"ny":28,"refTime":"2023-07-31T09:00:00:Z","depth":"0","parameterNumber":3,"parameterNumberName":"V-component_of_CURRENTS"},"data":[0,0,0,0,0,0,0,0,0,0,0,0,0,0,0,0,0,0,0,0,0,0,0,0,0,0,0,0,0,0,0,0,0,0,0,0,0,0,0,0,0,0,0,0,0,0,0,0,0,0,0,0,0,0,0,0,0,0,-0.0267,-0.0266,0,-0.0117,-0.0115,-0.0113,0.0027,0.0028,0.0029,0.0031,0.021,0.0214,0.0217,0,0,0,0,0,0,0,0,0,0,0,0,0,-0.0455,-0.0452,-0.0267,-0.0266,-0.0264,-0.0118,-0.0115,-0.0113,0.0026,0.0028,0.003,0.0031,0.0209,0.0213,0.0218,0,0,0,0,0,0,0,0,0,0,0,0,0,-0.0342,-0.0451,-0.0267,-0.018,-0.0171,-0.0118,-0.0115,-0.0112,0.0026,0.0028,0.003,0.0032,0.0208,0.0213,0.0218,0.021,0,0,0.0234,0.0237,0,0,0,0,0,0,0,0,-0.0349,-0.0335,-0.0194,-0.0186,-0.0176,-0.0065,-0.0115,-0.0004,0.0026,-0.0045,0.0031,0.0033,0.0117,0.013,0.0159,0.0218,0.0226,0.0235,0.0238,0.024,0.0242,0,0,0,0,0,0,0,-0.0357,-0.0341,-0.0204,-0.0193,-0.0182,-0.0156,-0.0137,-0.0094,0.0026,-0.0038,-0.0029,-0.0019,0.0123,0.0153,0.0164,0.0229,0.0235,0.0239,0.0243,0.0245,0.0284,0.0282,0,0,0,0,0,0,-0.0384,-0.0348,-0.0209,-0.02,-0.0264,-0.0155,-0.0133,-0.01,0.0026,0.0045,-0.0021,-0.0013,0.0143,0.0157,0.0171,0.0215,0.024,0.0245,0.0248,0.0286,0.0283,0.0281,0,0,0,0,0,0,-0.0388,-0.0372,-0.0215,-0.0275,-0.0254,-0.0154,-0.0117,-0.0098,-0.0071,0.0038,0.0059,-0.0015,0.0145,0.0163,0.0212,0.0221,0.0247,0.0252,0.0288,0.0285,0.0282,0.0273,0,0,0,0,0,0,-0.0394,-0.0374,-0.0367,-0.0276,-0.0252,-0.0201,-0.0119,-0.0097,-0.0069,-0.0058,0.005,0.007,0.0148,0.0204,0.0217,0.0229,0.0256,0.0291,0.0287,0.0283,0.0276,0.027,0.0264,0,0,0,0,0,-0.0401,-0.0402,-0.0366,-0.035,-0.0241,-0.0203,-0.0189,-0.0109,-0.0072,-0.0074,0.0011,0.0066,0.0187,0.0207,0.0223,0.0237,0.0293,0.0288,0.0283,0.0278,0.0271,0.0265,0,0,0,0,0,0,-0.0475,-0.0385,-0.0345,-0.0315,-0.0273,-0.0181,-0.0175,-0.013,-0.0066,-0.005,0.0054,0.0079,0.0108,0.0155,0.0173,0.0224,0.0242,0.024,0.0232,0.0225,0.022,0.0408,0.0261,0,0,0,0,0,-0.0492,-0.0465,-0.0388,-0.0368,-0.0351,-0.0271,-0.0248,-0.0198,-0.013,-0.0099,-0.0023,0.0046,0.0098,0.0149,0.0182,0.023,0.0322,0.0236,0.0231,0.0226,0.0383,0.0449,0.0468,0.0265,0.0265,0.0265,0,0,-0.0515,-0.0464,-0.0447,-0.0383,-0.0337,-0.0286,-0.025,-0.0227,-0.0146,-0.0093,0.0012,0.0011,0.0091,0.0143,0.0162,0.0198,0.0308,0.022,0.0217,0.0381,0.0447,0.0468,0.0487,0.0262,0.0263,0.0263,0,0,-0.0555,-0.0504,-0.0498,-0.046,-0.0408,-0.0334,-0.0337,-0.0262,-0.0191,-0.0133,-0.0071,-0.0028,0.0024,0.0137,0.0189,0.0172,0.0245,0.0109,0.0291,0.0346,0.0368,0.0388,0.0454,0.0481,0.0145,0.0145,0.0145,0,-0.0585,-0.0516,-0.0499,-0.0477,-0.0378,-0.0354,-0.027,-0.0229,-0.0143,-0.0012,-0.0109,0.0071,0.0062,0.0272,0.0247,0.0179,0.0221,0.0312,0.0351,0.0373,0.0394,0.0458,0.0488,0.0144,0.0144,0.0144,0.0144,0,-0.0611,-0.0535,-0.053,-0.0438,-0.0367,-0.0302,-0.0206,-0.0135,-0.0073,0.0025,0.0177,0.0164,0.0336,0.0244,0.0251,0.0408,0.0385,0.0301,0.0392,0.0416,0.0478,0.0509,0.0142,0.0143,0.0143,0.0143,0,0,-0.0685,-0.0553,-0.0549,-0.0395,-0.0296,-0.0196,-0.0074,0.0152,0.0345,0.0321,0.0594,0.0573,0.0604,0.0669,0.0635,0.067,0.0739,0.0566,0.0568,0.0682,0.0885,0.0775,0.0798,0.0641,0.0648,0.0653,0.0843,0,-0.0663,-0.0523,-0.0472,-0.025,-0.0098,0.0026,0.0191,0.0376,0.0506,0.0723,0.0764,0.0919,0.0753,0.0817,0.0834,0.078,0.0836,0.0701,0.0813,0.0821,0.0759,0.0837,0.0876,0.1043,0.0874,0.0879,0.0883,0,-0.0685,-0.0519,-0.0297,0.0062,0.0135,0.0252,0.0677,0.0812,0.108,0.1179,0.1347,0.1357,0.149,0.1252,0.1312,0.1224,0.1116,0.1022,0.1024,0.1003,0.0775,0.1002,0.1107,0.0865,0.0932,0.0929,0.0925,0,-0.0599,-0.0374,-0.0116,-0.0022,0.0312,0.0501,0.0689,0.0984,0.1198,0.1492,0.1634,0.1788,0.184,0.1773,0.1551,0.1457,0.1548,0.1381,0.1218,0.1207,0.1328,0.1316,0.129,0.1466,0.1465,0.1465,0.1464,0,-0.0522,-0.0309,-0.0047,0.0116,0.0497,0.0658,0.105,0.125,0.1539,0.1816,0.188,0.2066,0.1953,0.1952,0.1748,0.1606,0.1713,0.1365,0.1289,0.1304,0.1288,0.1151,0.103,0.1472,0.147,0.1469,0.1468,0,-0.0419,-0.0315,0.0056,0.0439,0.0551,0.0846,0.1224,0.1495,0.1713,0.2059,0.2152,0.2317,0.2326,0.2183,0.207,0.1846,0.1591,0.1617,0.1643,0.1567,0.1166,0.1043,0.1057,0.0946,0.1556,0.1555,0.1555,0,-0.0323,-0.0121,0.0303,0.0496,0.068,0.1056,0.1304,0.1582,0.1842,0.219,0.2367,0.2481,0.2584,0.242,0.2104,0.1873,0.16,0.1698,0.1527,0.1257,0.1065,0.0902,0.0796,0.1661,0.1661,0.1661,0.1661,0,0.003,0.0151,0.0451,0.0782,0.1058,0.1377,0.1717,0.1899,0.2209,0.2428,0.2683,0.2776,0.2675,0.2501,0.2166,0.1949,0.1539,0.1686,0.1442,0.1239,0.1047,0.0861,0.1399,0.1662,0.1662,0.1662,0.1662,0.1662,0.0351,0.0574,0.0876,0.1176,0.142,0.1665,0.1884,0.2151,0.2457,0.275,0.2846,0.2996,0.2832,0.241,0.2052,0.1506,0.1473,0.1332,0.1241,0.1123,0.0932,0.1462,0.1569,0.1568,0.1568,0.1567,0.1567,0,0.0807,0.0948,0.1246,0.1554,0.1755,0.1825,0.215,0.2311,0.2554,0.2827,0.3003,0.3132,0.2725,0.2314,0.167,0.1187,0.0943,0.0933,0.0764,0.0697,0.1245,0.1154,0.1132,0.1132,0.1132,0.1132,0.1133,0.1133,0.1087,0.1389,0.1446,0.1793,0.1931,0.2171,0.2299,0.2484,0.2696,0.3011,0.3223,0.3388,0.3225,0.195,0.1031,0.08,0.0408,0.0326,0.0108,0.0501,0.053,0.0558,0.0441,0.027,0.0269,-0.0407,-0.0413,-0.0417]}],[{"header":{"parameterUnit":"m.s-1","parameterCategory":2,"la1":30.2991,"la2":30.254,"lo1":-89.0895,"lo2":-89.0444,"dy":0.0017,"dx":0.0017,"nx":28,"ny":28,"refTime":"2023-07-31T09:00:00:Z","depth":"2","parameterNumber":2,"parameterNumberName":"U-component_of_CURRENTS"},"data":[0,0,0,0,0,0,0,0,0,0,0,0,0,0,0,0,0,0,0,0,0,0,0,0,0,0,0,0,0,0,0,0,0,0,0,0,0,0,0,0,0,0,0,0,0,0,0,0,0,0,0,0,0,0,0,0,0,0,0.0107,0.0107,0,0.0119,0.0119,0.0119,0.0103,0.0103,0.0102,0.0102,0.0052,0.0051,0.005,0,0,0,0,0,0,0,0,0,0,0,0,0,0.0078,0.0078,0.0107,0.0107,0.0107,0.0119,0.0119,0.0119,0.0104,0.0103,0.0102,0.0102,0.0052,0.0051,0.005,0,0,0,0,0,0,0,0,0,0,0,0,0,0.009,0.0078,0.0107,0.0101,0.0101,0.0119,0.0119,0.0119,0.0104,0.0103,0.0102,0.0101,0.0052,0.0051,0.005,0.0058,0,0,0.0046,0.0045,0,0,0,0,0,0,0,0,0.0089,0.0091,0.0102,0.0101,0.0101,0.0109,0.0091,0.0096,0.0104,0.0102,0.0102,0.0101,0.0066,0.0064,0.0068,0.0056,0.0054,0.0046,0.0045,0.0045,0.0044,0,0,0,0,0,0,0,0.0088,0.009,0.0111,0.0102,0.0102,0.0101,0.0101,0.0092,0.0087,0.0102,0.0101,0.0103,0.0065,0.0069,0.0066,0.0053,0.0046,0.0045,0.0044,0.0044,0.0086,0.0088,0,0,0,0,0,0,0.0088,0.0089,0.0111,0.0112,0.0093,0.0102,0.0103,0.0107,0.0088,0.0085,0.0104,0.0103,0.0072,0.0068,0.0065,0.0074,0.0045,0.0043,0.0043,0.0085,0.0087,0.0089,0,0,0,0,0,0,0.0088,0.009,0.011,0.0101,0.0103,0.0103,0.0108,0.0108,0.0116,0.0091,0.0086,0.0113,0.0071,0.0066,0.0072,0.0072,0.0043,0.0042,0.0082,0.0085,0.0088,0.0092,0,0,0,0,0,0,0.0087,0.009,0.0097,0.0101,0.0104,0.0125,0.0109,0.0109,0.0119,0.0117,0.0097,0.0091,0.007,0.0074,0.0071,0.0069,0.0041,0.008,0.0084,0.0087,0.009,0.0095,0.0099,0,0,0,0,0,0.0086,0.01,0.0097,0.01,0.0113,0.0126,0.0128,0.0124,0.012,0.0128,0.0122,0.0092,0.0094,0.0074,0.007,0.0068,0.0078,0.0083,0.0087,0.0087,0.0094,0.0099,0,0,0,0,0,0,0.0093,0.01,0.0097,0.0113,0.012,0.0123,0.0135,0.0132,0.0136,0.0137,0.011,0.0105,0.0113,0.0104,0.0083,0.0099,0.0084,0.0087,0.0086,0.0092,0.0096,0.0083,0.004,0,0,0,0,0,0.0098,0.0109,0.0114,0.0128,0.0135,0.0137,0.0144,0.0143,0.0145,0.0147,0.0132,0.0128,0.0129,0.012,0.0122,0.0123,0.0143,0.0126,0.0131,0.0135,0.0126,0.0145,0.015,0.0103,0.0103,0.0103,0,0,0.0105,0.0111,0.0117,0.013,0.0138,0.0147,0.014,0.0157,0.0159,0.014,0.0144,0.0145,0.0139,0.0144,0.0146,0.013,0.0175,0.014,0.0142,0.0132,0.015,0.0154,0.0158,0.0106,0.0105,0.0105,0,0,0.0126,0.0132,0.0148,0.0154,0.0167,0.0166,0.0173,0.018,0.018,0.019,0.0181,0.0183,0.0182,0.0171,0.0166,0.0203,0.0206,0.0212,0.0208,0.0227,0.023,0.0233,0.0324,0.0334,0.0204,0.0205,0.0205,0,0.0133,0.015,0.0155,0.0169,0.0173,0.0175,0.0186,0.019,0.0196,0.0193,0.0194,0.02,0.0191,0.0187,0.02,0.0207,0.0246,0.0177,0.0229,0.0232,0.0234,0.0327,0.0338,0.0205,0.0205,0.0205,0.0205,0,0.016,0.0172,0.0185,0.0196,0.0201,0.0216,0.0215,0.022,0.022,0.0215,0.0222,0.0221,0.0217,0.0222,0.0216,0.0231,0.0269,0.0237,0.0204,0.0239,0.0336,0.0348,0.0206,0.0206,0.0206,0.0206,0,0,0.018,0.0198,0.0204,0.0201,0.0215,0.0216,0.0226,0.0226,0.0223,0.023,0.0233,0.0232,0.0228,0.0226,0.0222,0.0232,0.0304,0.0241,0.0242,0.0315,0.0408,0.0456,0.0475,0.0275,0.0276,0.0276,0.049,0,0.0199,0.0219,0.0225,0.0233,0.0238,0.0235,0.0235,0.0233,0.0236,0.0242,0.024,0.0255,0.023,0.0243,0.0241,0.0293,0.0326,0.0253,0.0378,0.0383,0.0404,0.0485,0.0415,0.0599,0.0502,0.0503,0.0505,0,0.0224,0.023,0.0243,0.0233,0.0235,0.0234,0.0226,0.023,0.0236,0.0246,0.0249,0.0263,0.0295,0.0269,0.0351,0.031,0.0358,0.0393,0.0401,0.0441,0.045,0.0539,0.0624,0.0524,0.0523,0.0521,0.052,0,0.0225,0.0238,0.0242,0.0242,0.0237,0.0232,0.0227,0.0225,0.0249,0.0264,0.0312,0.0309,0.0374,0.0388,0.047,0.0419,0.0585,0.0522,0.0617,0.0625,0.0586,0.0588,0.0574,0.0574,0.0573,0.0572,0.0572,0,0.0237,0.024,0.0237,0.0238,0.0235,0.0224,0.023,0.023,0.0264,0.0317,0.0318,0.039,0.0407,0.0502,0.0516,0.064,0.063,0.0646,0.0674,0.0597,0.0597,0.0523,0.0514,0.0581,0.0579,0.0577,0.0576,0,0.0247,0.0246,0.025,0.0241,0.0238,0.0236,0.0263,0.0278,0.0311,0.0397,0.0429,0.051,0.0631,0.0675,0.076,0.0757,0.0826,0.0865,0.0817,0.0833,0.0847,0.0836,0.0992,0.0995,0.0998,0.1,0.1002,0,0.0255,0.026,0.0263,0.0273,0.0273,0.0274,0.0288,0.0303,0.0345,0.048,0.054,0.069,0.0792,0.0959,0.0966,0.1042,0.0975,0.1022,0.0875,0.0874,0.0886,0.0871,0.0857,0.0867,0.0868,0.0868,0.0869,0,0.0282,0.0287,0.0296,0.0308,0.032,0.0341,0.0366,0.0409,0.0462,0.0558,0.0706,0.0807,0.0974,0.1034,0.1134,0.1121,0.0989,0.1037,0.1057,0.0757,0.0768,0.0776,0.0764,0.0874,0.0873,0.0873,0.0872,0.0872,0.0317,0.0329,0.0342,0.035,0.0374,0.0406,0.0427,0.0482,0.0565,0.0718,0.081,0.0952,0.1007,0.1125,0.1122,0.1083,0.1112,0.1033,0.1026,0.1019,0.0951,0.0964,0.11,0.1101,0.1101,0.1102,0.1102,0,0.0355,0.0368,0.0383,0.0398,0.043,0.043,0.0483,0.0517,0.0615,0.0778,0.0919,0.0931,0.1036,0.1057,0.1038,0.1051,0.0953,0.0979,0.0851,0.0849,0.0847,0.0763,0.0866,0.0865,0.0864,0.0863,0,0,0.0377,0.0396,0.0387,0.0434,0.046,0.0501,0.053,0.0592,0.0682,0.0795,0.0886,0.1069,0.1094,0.1005,0.0985,0.0943,0.087,0.0886,0.1083,0.0935,0.0931,0.0897,0.077,0,0,0,0,0]},{"header":{"parameterUnit":"m.s-1","parameterCategory":2,"la1":30.2991,"la2":30.254,"lo1":-89.0895,"lo2":-89.0444,"dy":0.0017,"dx":0.0017,"nx":28,"ny":28,"refTime":"2023-07-31T09:00:00:Z","depth":"2","parameterNumber":3,"parameterNumberName":"V-component_of_CURRENTS"},"data":[0,0,0,0,0,0,0,0,0,0,0,0,0,0,0,0,0,0,0,0,0,0,0,0,0,0,0,0,0,0,0,0,0,0,0,0,0,0,0,0,0,0,0,0,0,0,0,0,0,0,0,0,0,0,0,0,0,0,-0.0439,-0.044,0,-0.0475,-0.0476,-0.0476,-0.0535,-0.0536,-0.0537,-0.0538,-0.0563,-0.0563,-0.0563,0,0,0,0,0,0,0,0,0,0,0,0,0,-0.0449,-0.0448,-0.0439,-0.044,-0.044,-0.0475,-0.0476,-0.0476,-0.0535,-0.0536,-0.0537,-0.0539,-0.0563,-0.0563,-0.0563,0,0,0,0,0,0,0,0,0,0,0,0,0,-0.0461,-0.0448,-0.0439,-0.0473,-0.0477,-0.0475,-0.0476,-0.0476,-0.0535,-0.0536,-0.0538,-0.0539,-0.0563,-0.0563,-0.0562,-0.0528,0,0,-0.0561,-0.0561,0,0,0,0,0,0,0,0,-0.046,-0.046,-0.0468,-0.0471,-0.0475,-0.0502,-0.0488,-0.0493,-0.0534,-0.0513,-0.0538,-0.054,-0.054,-0.0542,-0.0546,-0.0529,-0.053,-0.0561,-0.0561,-0.0561,-0.056,0,0,0,0,0,0,0,-0.0459,-0.0459,-0.0454,-0.0468,-0.0472,-0.0496,-0.05,-0.049,-0.0517,-0.0515,-0.0519,-0.0522,-0.0542,-0.0546,-0.0547,-0.0531,-0.0561,-0.0561,-0.056,-0.056,-0.0503,-0.0502,0,0,0,0,0,0,-0.0451,-0.0458,-0.0453,-0.0455,-0.0471,-0.0495,-0.0498,-0.0492,-0.0518,-0.0523,-0.0521,-0.0525,-0.0546,-0.0547,-0.0548,-0.0566,-0.0561,-0.056,-0.056,-0.0504,-0.0503,-0.0502,0,0,0,0,0,0,-0.045,-0.0449,-0.0451,-0.0458,-0.046,-0.0493,-0.0485,-0.0492,-0.0506,-0.0522,-0.0528,-0.0529,-0.0547,-0.0548,-0.0545,-0.0565,-0.056,-0.0559,-0.0506,-0.0504,-0.0502,-0.0564,0,0,0,0,0,0,-0.045,-0.0449,-0.0444,-0.0457,-0.0459,-0.0452,-0.0484,-0.0491,-0.0504,-0.051,-0.0531,-0.0534,-0.0549,-0.0546,-0.0545,-0.0564,-0.0559,-0.0507,-0.0505,-0.0503,-0.0564,-0.0565,-0.0566,0,0,0,0,0,-0.045,-0.0432,-0.0443,-0.0443,-0.0451,-0.0452,-0.0455,-0.0484,-0.0503,-0.0504,-0.0519,-0.0534,-0.053,-0.0544,-0.0543,-0.0564,-0.0509,-0.0506,-0.0503,-0.0564,-0.0565,-0.0566,0,0,0,0,0,0,-0.0434,-0.0437,-0.045,-0.0434,-0.0445,-0.0462,-0.0464,-0.0481,-0.0493,-0.0499,-0.0521,-0.0524,-0.0528,-0.0518,-0.0533,-0.0532,-0.052,-0.0517,-0.0566,-0.0567,-0.0568,-0.0615,-0.0559,0,0,0,0,0,-0.0426,-0.0417,-0.0427,-0.0417,-0.0419,-0.0441,-0.0447,-0.0463,-0.0474,-0.0483,-0.0499,-0.0504,-0.051,-0.0519,-0.0511,-0.0511,-0.0509,-0.0517,-0.0518,-0.0519,-0.0551,-0.0558,-0.0565,-0.0492,-0.0492,-0.0492,0,0,-0.042,-0.0419,-0.0416,-0.0414,-0.0425,-0.0435,-0.0449,-0.0451,-0.0472,-0.0479,-0.0505,-0.0503,-0.0505,-0.0514,-0.0514,-0.0517,-0.0527,-0.0516,-0.0518,-0.0549,-0.0556,-0.0564,-0.0571,-0.0491,-0.0491,-0.0491,0,0,-0.0404,-0.0398,-0.0391,-0.0398,-0.0408,-0.0422,-0.0423,-0.0438,-0.0458,-0.0468,-0.0485,-0.05,-0.0496,-0.0522,-0.053,-0.0522,-0.0525,-0.0505,-0.0567,-0.0573,-0.0581,-0.0588,-0.0562,-0.0566,-0.0516,-0.0516,-0.0517,0,-0.04,-0.0397,-0.0391,-0.0392,-0.041,-0.0419,-0.0433,-0.0444,-0.0461,-0.0485,-0.0479,-0.0509,-0.051,-0.0553,-0.0565,-0.0534,-0.0525,-0.0574,-0.0581,-0.0587,-0.0594,-0.0566,-0.057,-0.0519,-0.0519,-0.0519,-0.0518,0,-0.0388,-0.0393,-0.0388,-0.0403,-0.0414,-0.0421,-0.0442,-0.0455,-0.0477,-0.0503,-0.0537,-0.0542,-0.057,-0.0566,-0.0577,-0.0621,-0.0594,-0.0578,-0.0594,-0.0606,-0.0573,-0.0577,-0.0523,-0.0522,-0.0521,-0.052,0,0,-0.0367,-0.0381,-0.0384,-0.0405,-0.0425,-0.0434,-0.0463,-0.0504,-0.0528,-0.0555,-0.0594,-0.0634,-0.0646,-0.0656,-0.0659,-0.0688,-0.0714,-0.0669,-0.0668,-0.0672,-0.0711,-0.0698,-0.0699,-0.0709,-0.071,-0.0711,-0.0661,0,-0.0372,-0.0387,-0.0395,-0.0428,-0.0445,-0.047,-0.0498,-0.0534,-0.0556,-0.0582,-0.0622,-0.0637,-0.0674,-0.0676,-0.0723,-0.0701,-0.0731,-0.0729,-0.0675,-0.0673,-0.0685,-0.0706,-0.07,-0.0657,-0.0664,-0.0665,-0.0665,0,-0.0367,-0.0382,-0.0419,-0.0458,-0.0467,-0.0491,-0.0545,-0.0564,-0.0604,-0.0616,-0.0666,-0.0671,-0.0725,-0.0726,-0.077,-0.0766,-0.0765,-0.0756,-0.0753,-0.0735,-0.0668,-0.0648,-0.0662,-0.067,-0.067,-0.0669,-0.0669,0,-0.0375,-0.0401,-0.044,-0.0455,-0.0495,-0.0526,-0.0546,-0.0587,-0.0583,-0.0626,-0.0604,-0.069,-0.067,-0.0729,-0.0733,-0.0748,-0.0749,-0.0746,-0.0737,-0.0732,-0.0717,-0.071,-0.0791,-0.0791,-0.0791,-0.0791,-0.0791,0,-0.0384,-0.0413,-0.0447,-0.0472,-0.0501,-0.0532,-0.0553,-0.058,-0.0581,-0.0552,-0.0615,-0.0586,-0.0672,-0.0674,-0.0722,-0.0735,-0.0736,-0.0768,-0.0737,-0.073,-0.0725,-0.0734,-0.0728,-0.0789,-0.0789,-0.079,-0.079,0,-0.0394,-0.0419,-0.0454,-0.0499,-0.0508,-0.0528,-0.0517,-0.0509,-0.052,-0.047,-0.0467,-0.0488,-0.0501,-0.057,-0.0612,-0.0672,-0.0706,-0.0706,-0.0682,-0.0652,-0.0688,-0.0685,-0.0708,-0.0708,-0.0708,-0.0707,-0.0707,0,-0.0407,-0.0433,-0.0464,-0.0458,-0.048,-0.0491,-0.0477,-0.0483,-0.0445,-0.0393,-0.035,-0.0351,-0.0347,-0.0419,-0.0528,-0.0612,-0.0641,-0.0656,-0.0714,-0.0722,-0.0688,-0.0686,-0.0684,-0.0689,-0.0689,-0.0688,-0.0688,0,-0.0434,-0.0448,-0.0466,-0.0443,-0.0432,-0.0401,-0.0376,-0.0332,-0.0303,-0.0248,-0.0172,-0.0167,-0.0241,-0.034,-0.047,-0.0539,-0.0659,-0.0652,-0.0662,-0.0719,-0.0702,-0.067,-0.0668,-0.0685,-0.0685,-0.0685,-0.0686,-0.0686,-0.0455,-0.0446,-0.0449,-0.0421,-0.0382,-0.031,-0.0264,-0.0205,-0.0127,-0.002,-0.0033,0.0006,-0.0153,-0.0304,-0.0436,-0.0579,-0.0603,-0.0669,-0.067,-0.0672,-0.0688,-0.0672,-0.0649,-0.0649,-0.065,-0.065,-0.065,0,-0.0473,-0.0444,-0.0415,-0.0365,-0.0288,-0.0274,-0.0184,-0.0119,-0.0003,0.0086,0.0149,0.0066,-0.007,-0.0227,-0.044,-0.0593,-0.0616,-0.0629,-0.0639,-0.0642,-0.0645,-0.066,-0.0614,-0.0613,-0.0613,-0.0613,0,0,-0.0487,-0.0447,-0.0409,-0.0286,-0.0228,-0.0118,-0.0051,0.0039,0.0111,0.0225,0.0275,0.0246,0.0007,-0.0125,-0.0351,-0.0473,-0.0515,-0.0493,-0.0516,-0.0507,-0.0507,-0.0671,-0.0698,0,0,0,0,0]}],[{"header":{"parameterUnit":"m.s-1","parameterCategory":2,"la1":30.2991,"la2":30.254,"lo1":-89.0895,"lo2":-89.0444,"dy":0.0017,"dx":0.0017,"nx":28,"ny":28,"refTime":"2023-07-31T09:00:00:Z","depth":"4","parameterNumber":2,"parameterNumberName":"U-component_of_CURRENTS"},"data":[0,0,0,0,0,0,0,0,0,0,0,0,0,0,0,0,0,0,0,0,0,0,0,0,0,0,0,0,0,0,0,0,0,0,0,0,0,0,0,0,0,0,0,0,0,0,0,0,0,0,0,0,0,0,0,0,0,0,0.0021,0.0022,0,0.0058,0.0058,0.0059,0.0071,0.0071,0.0071,0.0071,0.0102,0.0103,0.0104,0,0,0,0,0,0,0,0,0,0,0,0,0,-0.002,-0.0019,0.0021,0.0022,0.0022,0.0058,0.0058,0.0059,0.0071,0.0071,0.0071,0.0071,0.0102,0.0103,0.0104,0,0,0,0,0,0,0,0,0,0,0,0,0,0.0005,-0.0019,0.0021,0.0033,0.0034,0.0058,0.0058,0.0059,0.0071,0.0071,0.0071,0.007,0.0102,0.0103,0.0105,0.0117,0,0,0.0109,0.011,0,0,0,0,0,0,0,0,0.0004,0.0006,0.0031,0.0032,0.0034,0.006,0.0056,0.0078,0.0071,0.0057,0.0071,0.007,0.0088,0.0091,0.0097,0.0118,0.0119,0.0109,0.011,0.0111,0.0111,0,0,0,0,0,0,0,0.0002,0.0005,0.0035,0.0031,0.0033,0.0043,0.0046,0.006,0.0072,0.0058,0.0059,0.0064,0.0089,0.0096,0.0098,0.012,0.0109,0.011,0.0111,0.0112,0.0162,0.0163,0,0,0,0,0,0,-0.0002,0.0003,0.0034,0.0036,0.0019,0.0044,0.0047,0.0051,0.0072,0.0076,0.0064,0.0064,0.0094,0.0097,0.0099,0.0134,0.0111,0.0112,0.0113,0.0162,0.0162,0.0163,0,0,0,0,0,0,-0.0003,0.0,0.0033,0.0021,0.0026,0.0044,0.0049,0.0052,0.0064,0.0077,0.008,0.0073,0.0094,0.0097,0.0118,0.0134,0.0112,0.0114,0.0161,0.0162,0.0163,0.0191,0,0,0,0,0,0,-0.0005,-0.0001,0.0002,0.0021,0.0027,0.005,0.005,0.0053,0.0068,0.0068,0.0086,0.0089,0.0094,0.0116,0.012,0.0136,0.0115,0.0161,0.0162,0.0162,0.0189,0.0192,0.0195,0,0,0,0,0,-0.0006,-0.0001,0.0002,0.0005,0.0029,0.0051,0.0055,0.0067,0.0068,0.0076,0.0089,0.0088,0.0124,0.0118,0.0122,0.0139,0.016,0.0161,0.0162,0.0188,0.0192,0.0195,0,0,0,0,0,0,-0.0017,0.0002,0.0005,0.0015,0.0033,0.0053,0.0064,0.0071,0.0087,0.009,0.0098,0.0102,0.0124,0.0127,0.0119,0.0155,0.0141,0.0143,0.0159,0.0163,0.0166,0.0179,0.0116,0,0,0,0,0,-0.0019,-0.0011,0.001,0.0018,0.0029,0.0047,0.0057,0.0067,0.0084,0.0091,0.0104,0.0117,0.0131,0.0143,0.0153,0.0177,0.0179,0.0189,0.0192,0.0194,0.0208,0.0205,0.0209,0.0167,0.0167,0.0166,0,0,-0.0023,-0.001,-0.0007,0.0016,0.0031,0.0053,0.0053,0.0074,0.0094,0.0092,0.0122,0.0127,0.0138,0.0162,0.0173,0.0169,0.021,0.0196,0.0198,0.021,0.0207,0.0211,0.0215,0.0167,0.0167,0.0167,0,0,-0.0021,-0.0011,-0.0001,0.0018,0.0044,0.0059,0.0067,0.0093,0.0106,0.0133,0.0136,0.0155,0.0176,0.0192,0.0201,0.0227,0.0221,0.0224,0.0257,0.0255,0.0259,0.0262,0.028,0.0285,0.023,0.023,0.023,0,-0.0025,-0.0007,0.0006,0.0027,0.0047,0.0064,0.0088,0.0106,0.0135,0.0148,0.0146,0.0179,0.0194,0.0223,0.0239,0.0236,0.0235,0.0243,0.0259,0.0262,0.0265,0.0283,0.0288,0.0232,0.0232,0.0231,0.0231,0,-0.0012,0.0007,0.0018,0.005,0.0072,0.0096,0.0126,0.0147,0.0164,0.018,0.0207,0.0223,0.0244,0.025,0.0261,0.0289,0.0283,0.0258,0.0251,0.0271,0.0289,0.0293,0.0234,0.0233,0.0233,0.0233,0,0,-0.0029,0.0018,0.0023,0.0047,0.009,0.0112,0.0147,0.0185,0.0209,0.0228,0.0256,0.0288,0.0291,0.0302,0.0307,0.0319,0.0352,0.0306,0.0305,0.0327,0.0359,0.0384,0.0392,0.032,0.0321,0.0321,0.0368,0,-0.002,0.0023,0.0045,0.0091,0.012,0.015,0.0183,0.0216,0.0242,0.0273,0.0286,0.0313,0.031,0.0325,0.0335,0.0347,0.0362,0.0342,0.0335,0.0336,0.0357,0.0397,0.0323,0.0371,0.0372,0.0373,0.0373,0,-0.001,0.0021,0.0066,0.0121,0.0136,0.0164,0.0222,0.0253,0.0294,0.0313,0.0333,0.0342,0.0381,0.0362,0.0391,0.0375,0.0379,0.038,0.0381,0.04,0.0369,0.0343,0.0381,0.0381,0.038,0.0379,0.0379,0,-0.0018,0.0037,0.0075,0.0095,0.0157,0.0183,0.0216,0.0263,0.0296,0.0339,0.0366,0.0385,0.0415,0.0408,0.0439,0.0409,0.0466,0.0415,0.044,0.0442,0.039,0.0386,0.043,0.0429,0.0429,0.0429,0.0429,0,-0.0011,0.002,0.0075,0.0099,0.0145,0.0186,0.0235,0.0269,0.0319,0.0366,0.0385,0.0427,0.0427,0.0462,0.0456,0.0487,0.0479,0.0468,0.046,0.0403,0.0399,0.0394,0.0389,0.0431,0.0431,0.043,0.043,0,-0.0024,0.0012,0.0059,0.0123,0.0144,0.0178,0.0247,0.0283,0.0331,0.0394,0.0413,0.0471,0.0523,0.0534,0.0551,0.053,0.0539,0.0547,0.0526,0.0512,0.0507,0.0503,0.0562,0.0564,0.0565,0.0566,0.0567,0,-0.0027,-0.0001,0.0069,0.0101,0.0131,0.0185,0.0225,0.0282,0.0328,0.0426,0.0462,0.0535,0.0572,0.0619,0.0621,0.0623,0.0607,0.0606,0.0524,0.0537,0.0523,0.0517,0.0511,0.0568,0.0569,0.0569,0.0569,0,-0.0031,-0.0005,0.0033,0.0097,0.0145,0.0201,0.0265,0.0296,0.0377,0.0419,0.0507,0.0545,0.0617,0.0634,0.0663,0.0649,0.0598,0.0617,0.0612,0.0536,0.0545,0.0528,0.0522,0.0573,0.0573,0.0572,0.0572,0,-0.0038,-0.0017,0.0036,0.0098,0.0153,0.0215,0.0246,0.032,0.0369,0.0472,0.0506,0.0579,0.0628,0.0652,0.0673,0.0679,0.0642,0.0592,0.0588,0.0583,0.0569,0.0582,0.0636,0,0,0,0,0,-0.0045,-0.0014,0.0038,0.011,0.0166,0.0206,0.0279,0.0313,0.0387,0.0443,0.0474,0.0541,0.0595,0.0628,0.0635,0.0669,0.0635,0.0673,0.0572,0.0596,0.0591,0.0572,0,0,0,0,0,0,-0.0046,-0.0009,0.0032,0.0112,0.0162,0.0229,0.0275,0.0324,0.0362,0.043,0.0461,0.051,0.0564,0.0586,0.0624,0.0634,0.0561,0.0714,0.0713,0.0598,0.0594,0.059,0.0569,0,0,0,0,0]},{"header":{"parameterUnit":"m.s-1","parameterCategory":2,"la1":30.2991,"la2":30.254,"lo1":-89.0895,"lo2":-89.0444,"dy":0.0017,"dx":0.0017,"nx":28,"ny":28,"refTime":"2023-07-31T09:00:00:Z","depth":"4","parameterNumber":3,"parameterNumberName":"V-component_of_CURRENTS"},"data":[0,0,0,0,0,0,0,0,0,0,0,0,0,0,0,0,0,0,0,0,0,0,0,0,0,0,0,0,0,0,0,0,0,0,0,0,0,0,0,0,0,0,0,0,0,0,0,0,0,0,0,0,0,0,0,0,0,0,-0.0019,-0.0019,0,-0.0039,-0.0039,-0.0039,-0.0072,-0.0072,-0.0073,-0.0073,-0.0151,-0.0152,-0.0154,0,0,0,0,0,0,0,0,0,0,0,0,0,-0.0049,-0.0048,-0.0019,-0.0019,-0.0019,-0.0039,-0.0039,-0.0039,-0.0072,-0.0073,-0.0073,-0.0074,-0.015,-0.0152,-0.0154,0,0,0,0,0,0,0,0,0,0,0,0,0,-0.005,-0.0048,-0.0018,-0.0037,-0.0039,-0.0039,-0.0039,-0.0039,-0.0072,-0.0073,-0.0073,-0.0074,-0.015,-0.0152,-0.0154,-0.0154,0,0,-0.0161,-0.0162,0,0,0,0,0,0,0,0,-0.005,-0.0049,-0.0034,-0.0035,-0.0037,-0.0053,-0.0078,-0.008,-0.0072,-0.006,-0.0073,-0.0074,-0.0122,-0.0127,-0.0129,-0.0157,-0.016,-0.0162,-0.0163,-0.0164,-0.0165,0,0,0,0,0,0,0,-0.005,-0.0049,-0.0028,-0.0034,-0.0036,-0.0058,-0.0059,-0.0079,-0.0088,-0.0061,-0.0063,-0.0064,-0.0124,-0.0127,-0.0132,-0.0162,-0.0162,-0.0164,-0.0165,-0.0166,-0.0211,-0.0211,0,0,0,0,0,0,-0.0042,-0.0048,-0.0027,-0.0028,-0.0045,-0.0056,-0.0057,-0.0048,-0.0087,-0.0093,-0.0063,-0.0065,-0.0122,-0.0129,-0.0134,-0.013,-0.0164,-0.0166,-0.0168,-0.0212,-0.0211,-0.0211,0,0,0,0,0,0,-0.0042,-0.0039,-0.0026,-0.0039,-0.0038,-0.0055,-0.0044,-0.0048,-0.006,-0.0088,-0.0095,-0.0073,-0.0123,-0.0131,-0.0161,-0.0134,-0.0167,-0.017,-0.0212,-0.0211,-0.0211,-0.0125,0,0,0,0,0,0,-0.0043,-0.0039,-0.0034,-0.0038,-0.0037,-0.0023,-0.0043,-0.0048,-0.0058,-0.0062,-0.0098,-0.0106,-0.0125,-0.0157,-0.0163,-0.0138,-0.0171,-0.0212,-0.0212,-0.0211,-0.0128,-0.0122,-0.0117,0,0,0,0,0,-0.0044,-0.0026,-0.0033,-0.0031,-0.0027,-0.0023,-0.0025,-0.004,-0.0058,-0.0057,-0.0089,-0.0105,-0.0158,-0.0159,-0.0166,-0.014,-0.0212,-0.0212,-0.0211,-0.0131,-0.0123,-0.0117,0,0,0,0,0,0,-0.0039,-0.0028,-0.0036,-0.0017,-0.0021,-0.0028,-0.0028,-0.0042,-0.0065,-0.0076,-0.0108,-0.0117,-0.013,-0.0155,-0.0155,-0.0155,-0.0186,-0.0187,-0.0122,-0.0115,-0.0109,-0.0136,-0.0173,0,0,0,0,0,-0.0033,-0.0018,-0.0018,-0.0006,-0.0006,-0.0021,-0.0024,-0.0034,-0.0052,-0.0063,-0.009,-0.0118,-0.0131,-0.0141,-0.0163,-0.0166,-0.0215,-0.0155,-0.0149,-0.0143,-0.0171,-0.0216,-0.0217,-0.0209,-0.0209,-0.0209,0,0,-0.0029,-0.0022,-0.0014,-0.0004,-0.0011,0.0007,-0.0025,-0.0026,-0.0015,-0.0068,-0.0075,-0.0104,-0.013,-0.013,-0.0137,-0.0148,-0.0167,-0.0143,-0.0137,-0.017,-0.0216,-0.0217,-0.0218,-0.0209,-0.0209,-0.0209,0,0,0.0002,-0.0005,0.0023,0.0025,0.0024,0.0017,0.0016,0.0004,-0.0007,-0.0017,-0.0046,-0.0068,-0.0093,-0.0101,-0.0107,-0.0087,-0.0138,-0.0088,-0.0073,-0.0114,-0.0115,-0.0117,-0.016,-0.0166,-0.0079,-0.0079,-0.0079,0,0.0006,0.0038,0.0029,0.0057,0.0052,0.0026,0.0043,0.0044,0.0021,-0.0005,-0.0012,-0.0071,-0.0075,-0.0084,-0.0067,-0.0071,-0.0117,-0.0088,-0.0106,-0.0109,-0.0112,-0.0156,-0.0164,-0.0075,-0.0075,-0.0076,-0.0076,0,0.0067,0.0081,0.0093,0.0119,0.0117,0.0121,0.0117,0.0102,0.0074,0.0056,0.0016,-0.0003,-0.0052,-0.0029,-0.0037,-0.0055,-0.0087,-0.0093,-0.012,-0.0108,-0.0154,-0.0164,-0.0069,-0.007,-0.0071,-0.0072,0,0,0.0095,0.0129,0.013,0.0126,0.0138,0.0131,0.0147,0.0126,0.0098,0.0083,0.0037,0.0045,-0.0009,-0.0023,-0.0034,-0.0051,-0.0077,-0.008,-0.0084,-0.0118,-0.0186,-0.0149,-0.0157,-0.0093,-0.0095,-0.0096,-0.0202,0,0.0133,0.0176,0.0189,0.0202,0.0205,0.0179,0.0184,0.016,0.0124,0.0077,0.0048,0.0003,0.0011,-0.0025,-0.0036,-0.0086,-0.0106,-0.005,-0.0201,-0.0206,-0.0169,-0.0167,-0.0102,-0.021,-0.0212,-0.0214,-0.0215,0,0.0183,0.0193,0.0215,0.0194,0.0191,0.0198,0.0137,0.014,0.0088,0.0053,-0.0001,-0.0043,-0.008,-0.0071,-0.0154,-0.0128,-0.0159,-0.0182,-0.0187,-0.0199,-0.0188,-0.0233,-0.0234,-0.0233,-0.0231,-0.023,-0.0229,0,0.0165,0.0197,0.0197,0.0199,0.0192,0.0172,0.0155,0.0112,0.0086,0.0014,-0.0027,-0.0091,-0.0134,-0.0189,-0.0224,-0.0211,-0.0316,-0.0302,-0.0298,-0.0296,-0.0337,-0.0334,-0.0364,-0.0364,-0.0363,-0.0363,-0.0363,0,0.0176,0.017,0.0181,0.0173,0.0143,0.0143,0.0096,0.0067,0.0023,-0.0011,-0.0058,-0.0095,-0.0168,-0.0225,-0.0259,-0.0313,-0.035,-0.0314,-0.0324,-0.0294,-0.0286,-0.0343,-0.0339,-0.0367,-0.0366,-0.0365,-0.0365,0,0.014,0.0163,0.015,0.014,0.0133,0.0097,0.0068,0.0036,-0.0002,-0.0049,-0.0075,-0.0128,-0.0196,-0.0255,-0.0343,-0.0352,-0.0409,-0.0412,-0.0386,-0.0391,-0.0357,-0.0348,-0.0443,-0.0443,-0.0442,-0.0442,-0.0442,0,0.0118,0.0113,0.0108,0.0098,0.0088,0.0053,0.0034,0.0011,-0.0009,-0.0055,-0.0074,-0.0145,-0.0178,-0.0276,-0.0335,-0.0423,-0.0407,-0.0454,-0.0394,-0.0367,-0.0368,-0.0359,-0.035,-0.0441,-0.0441,-0.0441,-0.0441,0,0.0053,0.0058,0.0048,0.0042,0.0026,0.0013,-0.0009,-0.0017,-0.0032,-0.0061,-0.0073,-0.0119,-0.0183,-0.0251,-0.032,-0.0372,-0.044,-0.045,-0.0451,-0.0395,-0.0366,-0.0365,-0.0357,-0.044,-0.044,-0.044,-0.044,0,-0.0013,-0.0022,-0.0015,-0.0023,-0.0029,-0.0021,-0.0024,-0.0023,-0.0034,-0.0053,-0.0053,-0.0111,-0.015,-0.0224,-0.0287,-0.0341,-0.0341,-0.0349,-0.0355,-0.0357,-0.0282,-0.023,-0.0285,0,0,0,0,0,-0.0084,-0.0076,-0.008,-0.0068,-0.0062,-0.006,-0.0048,-0.0039,-0.0034,-0.0032,-0.0036,-0.0081,-0.0154,-0.0192,-0.0237,-0.029,-0.0368,-0.0347,-0.0384,-0.0434,-0.0435,-0.0356,0,0,0,0,0,0,-0.0132,-0.0132,-0.0095,-0.0098,-0.0093,-0.0083,-0.0069,-0.0057,-0.0044,-0.0042,-0.0074,-0.0093,-0.0166,-0.0131,-0.0241,-0.026,-0.0287,-0.0386,-0.0387,-0.0433,-0.0434,-0.0435,-0.0355,0,0,0,0,0]}]]